Regional Weather Roundup
Issued by NWS

Home | Current Version | Previous Version | Graphics & Text | Print | Product List | Glossary On
Versions: 1 2 3 4 5 6 7 8 9 10 11 12 13 14 15 16 17 18 19 20 21 22 23 24 25 26 27 28 29 30 31 32 33 34 35 36 37 38 39 40 41 42 43 44 45 46 47 48 49 50
454
ASUS43 KFSD 101710
RWRSD

WEATHER ROUNDUP FOR SOUTH DAKOTA
NATIONAL WEATHER SERVICE SIOUX FALLS SD
1100 AM CST SAT DEC 10 2016

NOTE: "FAIR" INDICATES FEW OR NO CLOUDS BELOW 12,000 FEET WITH NO
SIGNIFICANT WEATHER AND/OR OBSTRUCTIONS TO VISIBILITY.


SDZ001>005-009-010-012>017-101800-
NORTHWEST AND NORTH CENTRAL SOUTH DAKOTA

CITY           SKY/WX    TMP DP  RH WIND       PRES   REMARKS
BUFFALO          N/A      2  -3  80 SE18      29.87F WCI -19
FAITH            N/A      1  -1  91 SE15      30.06S WCI -18
MOBRIDGE       LGT SNOW   0  -7  72 E15       30.20F WCI -19
$$

SDZ012>016-024>037-041>051-057-063-072>074-101800-
SOUTHWEST AND SOUTH CENTRAL SOUTH DAKOTA

CITY           SKY/WX    TMP DP  RH WIND       PRES   REMARKS
RAPID CTY ARPT CLOUDY     3  -1  83 SE12      29.94F WCI -13
PIERRE         LGT SNOW   3  -2  79 E16       30.17F VSB 1   WCI -16
CUSTER         CLOUDY    25  20  81 SW5       29.74F WCI  19
ELLSWORTH AFB  CLOUDY     3   0  85 SE13      29.92  WCI -14
PHILIP         FLURRIES   4   0  83 E13       30.09F WCI -13
PINE RIDGE     CLOUDY    11   7  84 E7        29.92F WCI   0
SPEARFISH      FAIR       3   0  85 CALM      29.83F
WINNER         CLOUDY    10   5  80 E16       30.11F WCI  -7
$$

SDZ004>011-016>023-039-040-101800-
NORTHEAST SOUTH DAKOTA

CITY           SKY/WX    TMP DP  RH WIND       PRES   REMARKS
ABERDEEN       LGT SNOW   0  -8  69 NE9       30.34F WCI -15
WATERTOWN      LGT SNOW   1  -3  83 E6        30.31R VSB 1   WCI -10
BROOKINGS      LGT SNOW   6   2  83 E8        30.31R VSB 1   WCI  -7
SISSETON         N/A     -2  -7  79 VRB3      30.39F
$$

SDZ017-020-022-023-036>040-048>070-101800-
SOUTHEAST SOUTH DAKOTA

CITY           SKY/WX    TMP DP  RH WIND       PRES   REMARKS
SIOUX FALLS    LGT SNOW  12   9  87 E9        30.29F VSB 1   WCI   0
HURON          SNOW       8   5  87 E8        30.31F VSB 1/2 WCI  -4
CHAMBERLAIN    LGT SNOW   9   5  84 E10       30.19F WCI  -6
MITCHELL       LGT SNOW  13  10  88 E10       30.29F VSB 3/4 WCI   0
YANKTON        CLOUDY    18  14  86 SE12      30.26F WCI   5
$$

ABBREVIATIONS USED IN REMARKS
   TC - TEMPERATURE IN CELSIUS
  WCI - WIND CHILL INDEX
   HX - HEAT INDEX
  VSB - VISIBILITY





USA.gov is the U.S. government's official web portal to all federal, state and local government web resources and services.